Home   Weather   Ittoqqortoormiit   Past weeks

Flag for Greenland Past Weather in Ittoqqortoormiit, Greenland — Yesterday and Last 2 Weeks

32 °F

Light snow. Overcast.

Feels Like: 21 °F
Forecast: 30 / 32 °F
Wind: 17 mph from Northeast

Location: Scoresbysund

Current Time: Oct 26, 2016 at 1:23:49 PM

Latest Report: Oct 26, 2016 at 12:00 PM

Visibility: 1 mi

Pressure: 29.29 "Hg

Humidity: 92%

Dew Point: 30 °F

Location of IttoqqortoormiitLocation

Past Weather in Ittoqqortoormiit — Graph


Ittoqqortoormiit Temperature Yesterday

Maximum temperature yesterday: 30 °F (at 1:00 AM)
Minimum temperature yesterday: 27 °F (at 5:00 PM)
Average temperature yesterday: 28 °F

High & Low Weather Summary for the Past Weeks

High38 °F (Oct 17, 5:00 AM)100% (Oct 12, 2:00 PM)30.09 "Hg (Oct 12, 2:00 PM)
Low27 °F (Oct 19, 1:00 PM)65% (Oct 15, 10:00 AM)29.26 "Hg (Oct 26, 6:00 AM)
Average31 °F90%29.84 "Hg
* Reported Oct 11 12:00 PM — Oct 26 12:00 PM, Ittoqqortoormiit, Weather by CustomWeather, © 2016

Note: Actual official high and low records may vary slightly from our data, if they occured in-between our weather recording intervals... More about our weather records


Ittoqqortoormiit Weather History for the Previous 24 Hours

Scroll right to see more
Time TempWeatherWind HumidityBarometerVisibility
12:00 PM
Wed, Oct 26
32 °FLight snow. Overcast.17 mph92%29.29 "Hg1 mi
11:00 AM32 °FLight snow. Dense fog.16 mph92%29.26 "Hg1 mi
10:00 AM31 °FLight snow. Ice fog.7 mph93%29.29 "Hg3 mi
9:00 AM30 °FLight snow. Ice fog.7 mph96%29.29 "Hg1 mi
8:00 AM29 °FLight snow. Low clouds.5 mph99%29.29 "Hg1 mi
7:00 AM29 °FLight snow. Low clouds.3 mph97%29.29 "Hg1 mi
6:00 AM30 °FLight snow. Overcast.17 mph89%29.26 "Hg2 mi
5:00 AM30 °FLight snow. Overcast.22 mph84%29.29 "Hg2 mi
4:00 AM29 °FLight snow. Low clouds.6 mph98%29.29 "Hg1 mi
3:00 AM29 °FLight snow. Ice fog.3 mph98%29.32 "Hg2 mi
9:00 PM
Tue, Oct 25
30 °FOvercast.3 mph84%29.41 "Hg31 mi
7:00 PM28 °FOvercast.2 mph91%29.44 "Hg31 mi
6:00 PM28 °FLight snow. Overcast.1 mph94%29.47 "Hg5 mi
5:00 PM27 °FLight snow. Overcast.3 mph98%29.50 "Hg1 mi
4:00 PM28 °FLight snow. Low clouds.2 mph97%29.50 "Hg1 mi
3:00 PM28 °FLight snow. Overcast.2 mph91%29.53 "Hg14 mi
2:00 PM28 °FLight snow. Overcast.7 mph94%29.55 "Hg4 mi
1:00 PM28 °FLight snow. Overcast.1 mph96%29.58 "Hg1 mi
Weather by CustomWeather, © 2016

See weather overviewHow to use our weather pages